This is the latest recevied weather packets stored in our database for station/object N4NVD-13. If no packets are shown the sender has not sent any weather packets the latest 1 day(s).
| Time | Temp. | Humidity | Pressure | Rain* | Wind** | Luminosity | Snow |
|---|---|---|---|---|---|---|---|
| 1777991312 | 23.33° C | 95% | 1007.7 hPa | 0 mm | 1.34 m/s, 219° | 45 W/m² | - |
| 1777991010 | 23.33° C | 95% | 1007.8 hPa | 0 mm | 2.68 m/s, 215° | 110 W/m² | - |
| 1777990707 | 22.78° C | 95% | 1007.7 hPa | 0 mm | 2.24 m/s, 210° | 64 W/m² | - |
| 1777990404 | 22.78° C | 96% | 1007.6 hPa | 0 mm | 1.34 m/s, 205° | 69 W/m² | - |
| 1777990100 | 22.78° C | 95% | 1007.6 hPa | 0 mm | 3.58 m/s, 210° | 60 W/m² | - |
| 1777989797 | 22.78° C | 96% | 1007.8 hPa | 0 mm | 1.79 m/s, 150° | 53 W/m² | - |
| 1777989494 | 22.78° C | 95% | 1007.7 hPa | 0 mm | 3.13 m/s, 227° | 38 W/m² | - |
| 1777989190 | 22.78° C | 96% | 1007.8 hPa | 0 mm | 4.02 m/s, 225° | 45 W/m² | - |
| 1777988887 | 22.78° C | 95% | 1007.7 hPa | 0 mm | 1.79 m/s, 154° | 48 W/m² | - |
| 1777988584 | 22.78° C | 96% | 1007.7 hPa | 0 mm | 2.68 m/s, 233° | 49 W/m² | - |
| 1777988280 | 22.78° C | 96% | 1007.6 hPa | 0 mm | 2.24 m/s, 208° | 59 W/m² | - |
| 1777987977 | 22.78° C | 96% | 1007.6 hPa | 0 mm | 2.24 m/s, 225° | 27 W/m² | - |
| 1777987672 | 22.78° C | 96% | 1007.7 hPa | 0 mm | 2.24 m/s, 220° | 31 W/m² | - |
| 1777987370 | 22.78° C | 96% | 1007.6 hPa | 0 mm | 1.79 m/s, 174° | 38 W/m² | - |
| 1777987067 | 22.78° C | 96% | 1007.5 hPa | 0 mm | 0.89 m/s, 199° | 44 W/m² | - |
| 1777986764 | 22.22° C | 96% | 1007.3 hPa | 0 mm | 2.68 m/s, 210° | 64 W/m² | - |
| 1777986462 | 22.22° C | 96% | 1007.1 hPa | 0 mm | 2.24 m/s, 221° | 57 W/m² | - |
| 1777986160 | 22.22° C | 96% | 1007.3 hPa | 0 mm | 1.79 m/s, 198° | 29 W/m² | - |
| 1777985857 | 22.22° C | 96% | 1007.2 hPa | 0 mm | 4.02 m/s, 220° | 15 W/m² | - |
| 1777985554 | 22.22° C | 96% | 1007.4 hPa | 0 mm | 2.24 m/s, 204° | 17 W/m² | - |
| 1777985251 | 22.22° C | 97% | 1007.2 hPa | 0 mm | 3.13 m/s, 199° | 12 W/m² | - |
| 1777984948 | 22.22° C | 96% | 1007.2 hPa | 0 mm | 3.13 m/s, 157° | 9 W/m² | - |
| 1777984643 | 21.67° C | 96% | 1007.2 hPa | 0 mm | 1.34 m/s, 195° | 7 W/m² | - |
| 1777984340 | 21.67° C | 96% | 1007.3 hPa | 0 mm | 2.24 m/s, 215° | 6 W/m² | - |
| 1777984036 | 21.67° C | 96% | 1007.3 hPa | 0 mm | 0 m/s | 12 W/m² | - |
* Rain latest hour (hover to see other rain measurements)
** Current wind speed in m/s (hover to see current wind gust speed)